Concord, NH

7:31 AM EST on February 21, 2017 (GMT -0500)
Concord Municipal

Weather History for KCON - May, 2012

Change the Weather History Date:

Wednesday, May 2, 2012

  Actual Average Record
Temperature  
Mean Temperature 47 °F 51 °F  
Max Temperature 51 °F 64 °F 91 °F (2001)
Min Temperature 42 °F 38 °F 25 °F (1969)
Degree Days  
Heating Degree Days 18 14  
Month to date heating degree days 37 14  
Since 1 July heating degree days 5778 6861  
Cooling Degree Days 0 0  
Month to date cooling degree days 0 0  
Year to date cooling degree days 9 2  
Moisture  
Dew Point 42 °F    
Average Humidity 84    
Maximum Humidity 96    
Minimum Humidity 71    
Precipitation  
Precipitation 0.00 in 0.11 in 1.87 in (1989)
Month to date precipitation 0.79 0.11  
Year to date precipitation 9.36 12.11  
Snow  
Snow 0.00 in 0.00 in 1.00 in (1869)
Month to date snowfall 0.0 0.0  
Since 1 July snowfall 48.9 61.4  
Snow Depth 0.00 in    
Sea Level Pressure  
Sea Level Pressure 30.21 in    
Wind  
Wind Speed 4 mph (East)    
Max Wind Speed 10 mph    
Max Gust Speed 14 mph    
Visibility 10 miles    
Events      
T = Trace of Precipitation, MM = Missing Value Source: NWS Daily Summary

Daily Weather History Graph

Daily Weather History Graph

Search for Another Location

Airport or City:

Trip Planner

Search our weather history database for the weather conditions in past years. The results will help you decide how hot, cold, wet, or windy it might be!

Date:

Astronomy

May. 02, 2012 Rise Set
Actual Time 5:37 AM EDT 7:49 PM EDT
Civil Twilight 5:06 AM EDT 8:20 PM EDT
Nautical Twilight 4:27 AM EDT 8:59 PM EDT
Astronomical Twilight 3:44 AM EDT 9:42 PM EDT
Moon 3:52 PM EDT (5/2) 3:12 AM EDT (5/2)
Length of Visible Light 15h 14m
Length of Day
14h 11m
Waxing Gibbous, 83% of the Moon is Illuminated
May 2
Waxing Gibbous
May 5
Full
May 12
Last Quarter
May 20
New
May 28
First Quarter

Hourly Weather History & Observations

Time (EDT) Temp. Windchill Dew Point Humidity Pressure Visibility Wind Dir Wind Speed Gust Speed Precip Events Conditions
12:51 AM 43.0 °F - 39.9 °F 89% 30.18 in 10.0 mi Calm Calm - N/A   Overcast
1:02 AM 42.8 °F - 39.2 °F 87% 30.17 in 10.0 mi Calm Calm - N/A   Overcast
1:51 AM 43.0 °F - 39.9 °F 89% 30.18 in 10.0 mi Calm Calm - N/A   Overcast
2:51 AM 42.1 °F 39.2 °F 39.9 °F 92% 30.17 in 10.0 mi NE 4.6 mph - N/A   Overcast
3:51 AM 42.1 °F - 41.0 °F 96% 30.18 in 10.0 mi Calm Calm - N/A   Overcast
4:51 AM 43.0 °F 40.3 °F 41.0 °F 93% 30.19 in 10.0 mi NNE 4.6 mph - N/A   Overcast
5:51 AM 43.0 °F 40.3 °F 39.9 °F 89% 30.20 in 10.0 mi NNE 4.6 mph - N/A   Overcast
6:51 AM 43.0 °F - 41.0 °F 93% 30.21 in 9.0 mi Calm Calm - N/A   Overcast
7:51 AM 45.0 °F 43.5 °F 42.1 °F 90% 30.22 in 10.0 mi ENE 3.5 mph - N/A   Overcast
8:08 AM 44.6 °F - 41.0 °F 87% 30.21 in 10.0 mi Calm Calm - N/A   Overcast
8:51 AM 46.0 °F 43.1 °F 41.0 °F 83% 30.23 in 10.0 mi NE 5.8 mph - N/A   Overcast
9:51 AM 48.9 °F - 43.0 °F 80% 30.25 in 10.0 mi North 3.5 mph - N/A   Overcast
10:51 AM 48.0 °F - 42.1 °F 80% 30.24 in 10.0 mi ESE 4.6 mph - N/A   Overcast
11:51 AM 48.9 °F - 42.1 °F 77% 30.23 in 10.0 mi ESE 5.8 mph - N/A   Overcast
12:51 PM 51.1 °F - 43.0 °F 74% 30.22 in 10.0 mi SE 5.8 mph - N/A   Overcast
1:51 PM 50.0 °F - 44.1 °F 80% 30.22 in 10.0 mi South 5.8 mph - N/A   Overcast
2:51 PM 50.0 °F - 43.0 °F 77% 30.21 in 10.0 mi ENE 5.8 mph - N/A   Overcast
3:51 PM 50.0 °F - 43.0 °F 77% 30.20 in 10.0 mi East 6.9 mph - N/A   Overcast
4:18 PM 48.2 °F - 44.6 °F 87% 30.19 in 10.0 mi ESE 5.8 mph - N/A   Overcast
4:51 PM 48.9 °F - 44.1 °F 83% 30.20 in 10.0 mi East 3.5 mph - N/A   Overcast
5:51 PM 48.9 °F - 43.0 °F 80% 30.21 in 10.0 mi SE 4.6 mph - N/A   Overcast
6:51 PM 48.9 °F - 43.0 °F 80% 30.21 in 10.0 mi ESE 3.5 mph - N/A   Overcast
7:51 PM 48.0 °F - 43.0 °F 83% 30.22 in 10.0 mi SE 4.6 mph - N/A   Overcast
8:51 PM 46.9 °F - 42.1 °F 83% 30.23 in 10.0 mi ESE 4.6 mph - N/A   Overcast
9:51 PM 46.0 °F 43.1 °F 42.1 °F 86% 30.22 in 10.0 mi SE 5.8 mph - N/A   Overcast
10:04 PM 44.6 °F 41.4 °F 42.8 °F 93% 30.21 in 10.0 mi SE 5.8 mph - N/A   Overcast
10:51 PM 44.6 °F 43.1 °F 42.8 °F 93% 30.20 in 10.0 mi ESE 3.5 mph - N/A   Overcast
11:05 PM 44.6 °F - 42.8 °F 93% 30.21 in 10.0 mi Calm Calm - N/A   Overcast
11:26 PM 44.6 °F 43.1 °F 42.8 °F 93% 30.20 in 10.0 mi ESE 3.5 mph - N/A   Overcast
11:51 PM 44.1 °F 42.5 °F 42.1 °F 93% 30.22 in 10.0 mi Variable 3.5 mph - N/A   Overcast